Roanoke, VA

6:30 PM EDT on October 22, 2019 (GMT -0400)
Roanoke Regional-Woodrum

Weather History for KROA - August, 2019

Change the Weather History Date:

Sunday, August 11, 2019

  Actual Average Record
Temperature  
Mean Temperature 73 °F 76 °F  
Max Temperature 85 °F 87 °F 99 °F (1926)
Min Temperature 60 °F 66 °F 52 °F (1962)
Degree Days  
Heating Degree Days 0 0  
Month to date heating degree days 0 0  
Since 1 June heating degree days 0 11  
Since 1 July heating degree days 0 0  
Cooling Degree Days 8 11  
Month to date cooling degree days 137 123  
Year to date cooling degree days 1120 846  
Since 1 June cooling degree days 841 730  
Growing Degree Days 22 (Base 50)    
Moisture  
Dew Point 57 °F    
Average Humidity 62    
Maximum Humidity 84    
Minimum Humidity 40    
Precipitation  
Precipitation 0.00 in 0.10 in 3.16 in (1984)
Month to date precipitation 0.26 1.27  
Year to date precipitation 27.83 25.84  
Snow  
Snow 0.00 in - - ()
Month to date snowfall 0.0  
Since 1 June snowfall T  
Since 1 July snowfall T  
Snow Depth 0.00 in    
Sea Level Pressure  
Sea Level Pressure 30.05 in    
Wind  
Wind Speed 4 mph (ESE)    
Max Wind Speed 13 mph    
Max Gust Speed 16 mph    
Visibility 10 miles    
Events      
T = Trace of Precipitation, MM = Missing Value Source: NWS Daily Summary

Daily Weather History Graph

Daily Weather History Graph

Search for Another Location

Airport or City:

Astronomy

Aug. 11, 2019 Rise Set
Actual Time 6:32 AM EDT 8:17 PM EDT
Civil Twilight 6:04 AM EDT 8:45 PM EDT
Nautical Twilight 5:30 AM EDT 9:18 PM EDT
Astronomical Twilight 4:54 AM EDT 9:54 PM EDT
Moon 5:51 PM EDT (8/11) 2:54 AM EDT (8/11)
Length of Visible Light 14h 40m
Length of Day
13h 44m
Waxing Gibbous, 87% of the Moon is Illuminated
Aug 11
Waxing Gibbous
Aug 15
Full
Aug 23
Last Quarter
Aug 30
New
Sep 5
First Quarter

Hourly Weather History & Observations

Time (EDT) Temp. Heat Index Dew Point Humidity Pressure Visibility Wind Dir Wind Speed Gust Speed Precip Events Conditions
12:54 AM 72.0 °F - 55.0 °F 55% 30.02 in 10.0 mi NNE 3.5 mph - N/A   Clear
1:54 AM 68.0 °F - 55.9 °F 65% 30.02 in 10.0 mi Calm Calm - N/A   Clear
2:54 AM 64.0 °F - 55.9 °F 75% 30.02 in 10.0 mi Calm Calm - N/A   Clear
3:54 AM 63.0 °F - 55.9 °F 78% 30.02 in 10.0 mi Calm Calm - N/A   Clear
4:54 AM 61.0 °F - 55.9 °F 83% 30.03 in 10.0 mi WNW 3.5 mph - N/A   Clear
5:54 AM 61.0 °F - 55.0 °F 81% 30.04 in 10.0 mi Calm Calm - N/A   Clear
6:54 AM 60.1 °F - 55.0 °F 83% 30.06 in 10.0 mi Variable 3.5 mph - N/A   Clear
7:54 AM 64.0 °F - 55.9 °F 75% 30.08 in 10.0 mi West 5.8 mph - N/A   Clear
8:54 AM 71.1 °F - 55.9 °F 59% 30.08 in 10.0 mi NNE 5.8 mph - N/A   Clear
9:54 AM 73.0 °F - 57.0 °F 57% 30.10 in 10.0 mi North 6.9 mph - N/A   Clear
10:54 AM 77.0 °F - 57.9 °F 52% 30.10 in 10.0 mi Variable 5.8 mph - N/A   Clear
11:54 AM 79.0 °F - 57.9 °F 48% 30.10 in 10.0 mi Variable 3.5 mph - N/A   Partly Cloudy
12:54 PM 81.0 °F 81.0 °F 57.0 °F 44% 30.09 in 10.0 mi ESE 8.1 mph - N/A   Partly Cloudy
1:54 PM 82.0 °F 82.0 °F 57.9 °F 44% 30.08 in 10.0 mi Variable 6.9 mph - N/A   Scattered Clouds
2:54 PM 82.9 °F 82.6 °F 57.9 °F 42% 30.05 in 10.0 mi Variable 5.8 mph - N/A   Scattered Clouds
3:54 PM 84.0 °F 83.5 °F 57.9 °F 41% 30.04 in 10.0 mi Calm Calm - N/A   Scattered Clouds
4:54 PM 84.9 °F 84.4 °F 59.0 °F 41% 30.04 in 10.0 mi South 8.1 mph - N/A   Partly Cloudy
5:54 PM 82.9 °F 82.6 °F 57.9 °F 42% 30.03 in 10.0 mi East 9.2 mph - N/A   Partly Cloudy
6:54 PM 82.0 °F 82.0 °F 57.9 °F 44% 30.02 in 10.0 mi SE 10.4 mph - N/A   Partly Cloudy
7:54 PM 80.1 °F 80.6 °F 57.9 °F 47% 30.03 in 10.0 mi ESE 6.9 mph - N/A   Scattered Clouds
8:54 PM 75.9 °F - 59.0 °F 56% 30.03 in 10.0 mi SSE 5.8 mph - N/A   Scattered Clouds
9:54 PM 77.0 °F - 60.1 °F 56% 30.04 in 10.0 mi ESE 3.5 mph - N/A   Clear
10:54 PM 73.0 °F - 61.0 °F 66% 30.04 in 10.0 mi Calm Calm - N/A   Clear
11:54 PM 72.0 °F - 61.0 °F 68% 30.05 in 10.0 mi Calm Calm - N/A   Clear